owner,sensor,date,latitude,longitude,sea_surface_height_above_sea_level,qcFlag 
COMPS,ioos:station:USF.COMPS:SHP:1,2019-09-01T00:54:00,30.0600,-84.2910,-0.118,11114222 
COMPS,ioos:station:USF.COMPS:SHP:1,2019-09-01T01:54:00,30.0600,-84.2910,-0.294,11114222 
COMPS,ioos:station:USF.COMPS:SHP:1,2019-09-01T02:54:00,30.0600,-84.2910,-0.383,11114222 
COMPS,ioos:station:USF.COMPS:SHP:1,2019-09-01T03:54:00,30.0600,-84.2910,-0.392,11114222 
COMPS,ioos:station:USF.COMPS:SHP:1,2019-09-01T04:54:00,30.0600,-84.2910,-0.377,11114222 
COMPS,ioos:station:USF.COMPS:SHP:1,2019-09-01T05:54:00,30.0600,-84.2910,-0.352,11114222 
COMPS,ioos:station:USF.COMPS:SHP:1,2019-09-01T06:54:00,30.0600,-84.2910,-0.317,11114222 
COMPS,ioos:station:USF.COMPS:SHP:1,2019-09-01T07:54:00,30.0600,-84.2910,-0.273,11114222 
COMPS,ioos:station:USF.COMPS:SHP:1,2019-09-01T08:54:00,30.0600,-84.2910,-0.221,11114222 
COMPS,ioos:station:USF.COMPS:SHP:1,2019-09-01T09:54:00,30.0600,-84.2910,-0.176,11114222 
COMPS,ioos:station:USF.COMPS:SHP:1,2019-09-01T10:54:00,30.0600,-84.2910,-0.144,11114222 
COMPS,ioos:station:USF.COMPS:SHP:1,2019-09-01T11:54:00,30.0600,-84.2910,-0.125,11114222 
COMPS,ioos:station:USF.COMPS:SHP:1,2019-09-01T12:54:00,30.0600,-84.2910,-0.116,11114222 
COMPS,ioos:station:USF.COMPS:SHP:1,2019-09-01T13:54:00,30.0600,-84.2910,-0.116,11114222 
COMPS,ioos:station:USF.COMPS:SHP:1,2019-09-01T14:54:00,30.0600,-84.2910,-0.134,11114222 
COMPS,ioos:station:USF.COMPS:SHP:1,2019-09-01T15:54:00,30.0600,-84.2910,-0.138,11114222 
COMPS,ioos:station:USF.COMPS:SHP:1,2019-09-01T16:54:00,30.0600,-84.2910,-0.133,11114222 
COMPS,ioos:station:USF.COMPS:SHP:1,2019-09-01T17:54:00,30.0600,-84.2910,-0.111,11114222 
COMPS,ioos:station:USF.COMPS:SHP:1,2019-09-01T18:54:00,30.0600,-84.2910,-0.083,11114222 
COMPS,ioos:station:USF.COMPS:SHP:1,2019-09-01T19:54:00,30.0600,-84.2910,-0.045,11114222 
COMPS,ioos:station:USF.COMPS:SHP:1,2019-09-01T20:54:00,30.0600,-84.2910,-0.008,11114222 
COMPS,ioos:station:USF.COMPS:SHP:1,2019-09-01T21:54:00,30.0600,-84.2910,0.035,11111222 
COMPS,ioos:station:USF.COMPS:SHP:1,2019-09-01T22:54:00,30.0600,-84.2910,0.07,11111222 
COMPS,ioos:station:USF.COMPS:SHP:1,2019-09-01T23:54:00,30.0600,-84.2910,0.089,11111222 
COMPS,ioos:station:USF.COMPS:SHP:1,2019-09-02T00:54:00,30.0600,-84.2910,0.08,11111222 
COMPS,ioos:station:USF.COMPS:SHP:1,2019-09-02T01:54:00,30.0600,-84.2910,-0.116,11114222 
COMPS,ioos:station:USF.COMPS:SHP:1,2019-09-02T02:54:00,30.0600,-84.2910,-0.289,11114222 
COMPS,ioos:station:USF.COMPS:SHP:1,2019-09-02T03:54:00,30.0600,-84.2910,-0.349,11114222 
COMPS,ioos:station:USF.COMPS:SHP:1,2019-09-02T04:54:00,30.0600,-84.2910,-0.338,11114222 
COMPS,ioos:station:USF.COMPS:SHP:1,2019-09-02T05:54:00,30.0600,-84.2910,-0.32,11114222 
COMPS,ioos:station:USF.COMPS:SHP:1,2019-09-02T06:54:00,30.0600,-84.2910,-0.293,11114222 
COMPS,ioos:station:USF.COMPS:SHP:1,2019-09-02T07:54:00,30.0600,-84.2910,-0.256,11114222 
COMPS,ioos:station:USF.COMPS:SHP:1,2019-09-02T08:54:00,30.0600,-84.2910,-0.213,11114222 
COMPS,ioos:station:USF.COMPS:SHP:1,2019-09-02T09:54:00,30.0600,-84.2910,-0.171,11114222 
COMPS,ioos:station:USF.COMPS:SHP:1,2019-09-02T10:54:00,30.0600,-84.2910,-0.138,11114222 
COMPS,ioos:station:USF.COMPS:SHP:1,2019-09-02T11:54:00,30.0600,-84.2910,-0.118,11114222 
COMPS,ioos:station:USF.COMPS:SHP:1,2019-09-02T14:54:00,30.0600,-84.2910,-0.274,11114222 
COMPS,ioos:station:USF.COMPS:SHP:1,2019-09-02T15:54:00,30.0600,-84.2910,-0.34,11114222 
COMPS,ioos:station:USF.COMPS:SHP:1,2019-09-02T16:54:00,30.0600,-84.2910,-0.34,11114222 
COMPS,ioos:station:USF.COMPS:SHP:1,2019-09-02T17:54:00,30.0600,-84.2910,-0.324,11114222 
COMPS,ioos:station:USF.COMPS:SHP:1,2019-09-02T18:54:00,30.0600,-84.2910,-0.303,11114222 
COMPS,ioos:station:USF.COMPS:SHP:1,2019-09-02T19:54:00,30.0600,-84.2910,-0.27,11114222 
COMPS,ioos:station:USF.COMPS:SHP:1,2019-09-02T20:54:00,30.0600,-84.2910,-0.241,11114222 
COMPS,ioos:station:USF.COMPS:SHP:1,2019-09-02T21:54:00,30.0600,-84.2910,-0.207,11114222 
COMPS,ioos:station:USF.COMPS:SHP:1,2019-09-02T22:54:00,30.0600,-84.2910,-0.175,11114222 
COMPS,ioos:station:USF.COMPS:SHP:1,2019-09-02T23:54:00,30.0600,-84.2910,-0.159,11114222 
COMPS,ioos:station:USF.COMPS:SHP:1,2019-09-03T00:54:00,30.0600,-84.2910,-0.145,11114222 
COMPS,ioos:station:USF.COMPS:SHP:1,2019-09-03T01:54:00,30.0600,-84.2910,-0.139,11114222 
COMPS,ioos:station:USF.COMPS:SHP:1,2019-09-03T02:54:00,30.0600,-84.2910,-0.206,11114222 
COMPS,ioos:station:USF.COMPS:SHP:1,2019-09-03T03:54:00,30.0600,-84.2910,-0.297,11114222 
COMPS,ioos:station:USF.COMPS:SHP:1,2019-09-03T04:54:00,30.0600,-84.2910,-0.312,11114222 
COMPS,ioos:station:USF.COMPS:SHP:1,2019-09-03T05:54:00,30.0600,-84.2910,-0.299,11114222 
COMPS,ioos:station:USF.COMPS:SHP:1,2019-09-03T06:54:00,30.0600,-84.2910,-0.281,11114222 
COMPS,ioos:station:USF.COMPS:SHP:1,2019-09-03T07:54:00,30.0600,-84.2910,-0.255,11114222 
COMPS,ioos:station:USF.COMPS:SHP:1,2019-09-03T08:54:00,30.0600,-84.2910,-0.225,11114222 
COMPS,ioos:station:USF.COMPS:SHP:1,2019-09-03T09:54:00,30.0600,-84.2910,-0.193,11114222 
COMPS,ioos:station:USF.COMPS:SHP:1,2019-09-03T10:54:00,30.0600,-84.2910,-0.162,11114222 
COMPS,ioos:station:USF.COMPS:SHP:1,2019-09-03T11:54:00,30.0600,-84.2910,-0.139,11114222 
COMPS,ioos:station:USF.COMPS:SHP:1,2019-09-03T12:54:00,30.0600,-84.2910,-0.128,11114222 
COMPS,ioos:station:USF.COMPS:SHP:1,2019-09-03T13:54:00,30.0600,-84.2910,-0.127,11114222 
COMPS,ioos:station:USF.COMPS:SHP:1,2019-09-03T14:54:00,30.0600,-84.2910,-0.234,11114222 
COMPS,ioos:station:USF.COMPS:SHP:1,2019-09-03T15:54:00,30.0600,-84.2910,-0.374,11114222 
COMPS,ioos:station:USF.COMPS:SHP:1,2019-09-03T16:54:00,30.0600,-84.2910,-0.432,11114222 
COMPS,ioos:station:USF.COMPS:SHP:1,2019-09-03T17:54:00,30.0600,-84.2910,-0.428,11114222 
COMPS,ioos:station:USF.COMPS:SHP:1,2019-09-03T18:54:00,30.0600,-84.2910,-0.407,11114222 
COMPS,ioos:station:USF.COMPS:SHP:1,2019-09-03T19:54:00,30.0600,-84.2910,-0.371,11114222 
COMPS,ioos:station:USF.COMPS:SHP:1,2019-09-03T20:54:00,30.0600,-84.2910,-0.345,11114222 
COMPS,ioos:station:USF.COMPS:SHP:1,2019-09-03T21:54:00,30.0600,-84.2910,-0.318,11114222 
COMPS,ioos:station:USF.COMPS:SHP:1,2019-09-03T22:54:00,30.0600,-84.2910,-0.292,11114222 
COMPS,ioos:station:USF.COMPS:SHP:1,2019-09-03T23:54:00,30.0600,-84.2910,-0.273,11114222 
COMPS,ioos:station:USF.COMPS:SHP:1,2019-09-04T00:54:00,30.0600,-84.2910,-0.249,11114222 
COMPS,ioos:station:USF.COMPS:SHP:1,2019-09-04T01:54:00,30.0600,-84.2910,-0.234,11114222 
COMPS,ioos:station:USF.COMPS:SHP:1,2019-09-04T02:54:00,30.0600,-84.2910,-0.228,11114222 
COMPS,ioos:station:USF.COMPS:SHP:1,2019-09-04T03:54:00,30.0600,-84.2910,-0.226,11114222 
COMPS,ioos:station:USF.COMPS:SHP:1,2019-09-04T04:54:00,30.0600,-84.2910,-0.223,11114222 
COMPS,ioos:station:USF.COMPS:SHP:1,2019-09-04T05:54:00,30.0600,-84.2910,-0.217,11114222 
COMPS,ioos:station:USF.COMPS:SHP:1,2019-09-04T06:54:00,30.0600,-84.2910,-0.208,11114222 
COMPS,ioos:station:USF.COMPS:SHP:1,2019-09-04T07:54:00,30.0600,-84.2910,-0.193,11114222 
COMPS,ioos:station:USF.COMPS:SHP:1,2019-09-04T08:54:00,30.0600,-84.2910,-0.173,11114222 
COMPS,ioos:station:USF.COMPS:SHP:1,2019-09-04T09:54:00,30.0600,-84.2910,-0.151,11114222 
COMPS,ioos:station:USF.COMPS:SHP:1,2019-09-04T10:54:00,30.0600,-84.2910,-0.128,11114222 
COMPS,ioos:station:USF.COMPS:SHP:1,2019-09-04T11:54:00,30.0600,-84.2910,-0.112,11114222 
COMPS,ioos:station:USF.COMPS:SHP:1,2019-09-04T12:54:00,30.0600,-84.2910,-0.103,11114222 
COMPS,ioos:station:USF.COMPS:SHP:1,2019-09-04T13:54:00,30.0600,-84.2910,-0.1,11114222 
COMPS,ioos:station:USF.COMPS:SHP:1,2019-09-04T14:54:00,30.0600,-84.2910,-0.199,11114222 
COMPS,ioos:station:USF.COMPS:SHP:1,2019-09-04T15:54:00,30.0600,-84.2910,-0.348,11114222 
COMPS,ioos:station:USF.COMPS:SHP:1,2019-09-04T16:54:00,30.0600,-84.2910,-0.455,11114222 
COMPS,ioos:station:USF.COMPS:SHP:1,2019-09-04T17:54:00,30.0600,-84.2910,-0.525,11114222 
COMPS,ioos:station:USF.COMPS:SHP:1,2019-09-04T18:54:00,30.0600,-84.2910,-0.519,11114222 
COMPS,ioos:station:USF.COMPS:SHP:1,2019-09-04T19:54:00,30.0600,-84.2910,-0.492,11114222 
COMPS,ioos:station:USF.COMPS:SHP:1,2019-09-04T20:54:00,30.0600,-84.2910,-0.468,11114222 
COMPS,ioos:station:USF.COMPS:SHP:1,2019-09-04T21:54:00,30.0600,-84.2910,-0.45,11114222 
COMPS,ioos:station:USF.COMPS:SHP:1,2019-09-04T22:54:00,30.0600,-84.2910,-0.434,11114222 
COMPS,ioos:station:USF.COMPS:SHP:1,2019-09-04T23:54:00,30.0600,-84.2910,-0.423,11114222 
COMPS,ioos:station:USF.COMPS:SHP:1,2019-09-05T00:54:00,30.0600,-84.2910,-0.397,11114222 
COMPS,ioos:station:USF.COMPS:SHP:1,2019-09-05T01:54:00,30.0600,-84.2910,-0.373,11114222 
COMPS,ioos:station:USF.COMPS:SHP:1,2019-09-05T02:54:00,30.0600,-84.2910,-0.358,11114222 
COMPS,ioos:station:USF.COMPS:SHP:1,2019-09-05T03:54:00,30.0600,-84.2910,-0.347,11114222 
COMPS,ioos:station:USF.COMPS:SHP:1,2019-09-05T04:54:00,30.0600,-84.2910,-0.339,11114222 
COMPS,ioos:station:USF.COMPS:SHP:1,2019-09-05T05:54:00,30.0600,-84.2910,-0.331,11114222 
COMPS,ioos:station:USF.COMPS:SHP:1,2019-09-05T06:54:00,30.0600,-84.2910,-0.32,11114222 
COMPS,ioos:station:USF.COMPS:SHP:1,2019-09-05T07:54:00,30.0600,-84.2910,-0.306,11114222 
COMPS,ioos:station:USF.COMPS:SHP:1,2019-09-05T08:54:00,30.0600,-84.2910,-0.286,11114222 
COMPS,ioos:station:USF.COMPS:SHP:1,2019-09-05T09:54:00,30.0600,-84.2910,-0.262,11114222 
COMPS,ioos:station:USF.COMPS:SHP:1,2019-09-05T10:54:00,30.0600,-84.2910,-0.235,11114222 
COMPS,ioos:station:USF.COMPS:SHP:1,2019-09-05T11:54:00,30.0600,-84.2910,-0.21,11114222 
COMPS,ioos:station:USF.COMPS:SHP:1,2019-09-05T12:54:00,30.0600,-84.2910,-0.192,11114222 
COMPS,ioos:station:USF.COMPS:SHP:1,2019-09-05T13:54:00,30.0600,-84.2910,-0.181,11114222 
COMPS,ioos:station:USF.COMPS:SHP:1,2019-09-05T14:54:00,30.0600,-84.2910,-0.177,11114222 
COMPS,ioos:station:USF.COMPS:SHP:1,2019-09-05T15:54:00,30.0600,-84.2910,-0.181,11114222 
COMPS,ioos:station:USF.COMPS:SHP:1,2019-09-05T16:54:00,30.0600,-84.2910,-0.261,11114222 
COMPS,ioos:station:USF.COMPS:SHP:1,2019-09-05T17:54:00,30.0600,-84.2910,-0.325,11114222 
COMPS,ioos:station:USF.COMPS:SHP:1,2019-09-05T18:54:00,30.0600,-84.2910,-0.348,11114222 
COMPS,ioos:station:USF.COMPS:SHP:1,2019-09-05T19:54:00,30.0600,-84.2910,-0.329,11114222 
COMPS,ioos:station:USF.COMPS:SHP:1,2019-09-05T20:54:00,30.0600,-84.2910,-0.311,11114222 
COMPS,ioos:station:USF.COMPS:SHP:1,2019-09-05T21:54:00,30.0600,-84.2910,-0.301,11114222 
COMPS,ioos:station:USF.COMPS:SHP:1,2019-09-05T22:54:00,30.0600,-84.2910,-0.292,11114222 
COMPS,ioos:station:USF.COMPS:SHP:1,2019-09-05T23:54:00,30.0600,-84.2910,-0.284,11114222 
COMPS,ioos:station:USF.COMPS:SHP:1,2019-09-06T00:54:00,30.0600,-84.2910,-0.264,11114222 
COMPS,ioos:station:USF.COMPS:SHP:1,2019-09-06T01:54:00,30.0600,-84.2910,-0.246,11114222 
COMPS,ioos:station:USF.COMPS:SHP:1,2019-09-06T02:54:00,30.0600,-84.2910,-0.232,11114222 
COMPS,ioos:station:USF.COMPS:SHP:1,2019-09-06T03:54:00,30.0600,-84.2910,-0.222,11114222 
COMPS,ioos:station:USF.COMPS:SHP:1,2019-09-06T05:54:00,30.0600,-84.2910,-0.21,11114222 
COMPS,ioos:station:USF.COMPS:SHP:1,2019-09-06T06:54:00,30.0600,-84.2910,-0.204,11114222 
COMPS,ioos:station:USF.COMPS:SHP:1,2019-09-06T07:54:00,30.0600,-84.2910,-0.197,11114222 
COMPS,ioos:station:USF.COMPS:SHP:1,2019-09-06T08:54:00,30.0600,-84.2910,-0.187,11114222 
COMPS,ioos:station:USF.COMPS:SHP:1,2019-09-06T09:54:00,30.0600,-84.2910,-0.172,11114222 
COMPS,ioos:station:USF.COMPS:SHP:1,2019-09-06T10:54:00,30.0600,-84.2910,-0.154,11114222 
COMPS,ioos:station:USF.COMPS:SHP:1,2019-09-06T11:54:00,30.0600,-84.2910,-0.136,11114222 
COMPS,ioos:station:USF.COMPS:SHP:1,2019-09-06T12:54:00,30.0600,-84.2910,-0.121,11114222 
COMPS,ioos:station:USF.COMPS:SHP:1,2019-09-06T13:54:00,30.0600,-84.2910,-0.108,11114222 
COMPS,ioos:station:USF.COMPS:SHP:1,2019-09-06T14:54:00,30.0600,-84.2910,-0.1,11114222 
COMPS,ioos:station:USF.COMPS:SHP:1,2019-09-06T15:54:00,30.0600,-84.2910,-0.101,11114222 
COMPS,ioos:station:USF.COMPS:SHP:1,2019-09-06T16:54:00,30.0600,-84.2910,-0.102,11114222 
COMPS,ioos:station:USF.COMPS:SHP:1,2019-09-06T17:54:00,30.0600,-84.2910,-0.141,11114222 
COMPS,ioos:station:USF.COMPS:SHP:1,2019-09-06T18:54:00,30.0600,-84.2910,-0.225,11114222 
COMPS,ioos:station:USF.COMPS:SHP:1,2019-09-06T19:54:00,30.0600,-84.2910,-0.244,11114222 
COMPS,ioos:station:USF.COMPS:SHP:1,2019-09-06T20:54:00,30.0600,-84.2910,-0.237,11114222 
COMPS,ioos:station:USF.COMPS:SHP:1,2019-09-06T21:54:00,30.0600,-84.2910,-0.223,11114222 
COMPS,ioos:station:USF.COMPS:SHP:1,2019-09-06T22:54:00,30.0600,-84.2910,-0.214,11114222 
COMPS,ioos:station:USF.COMPS:SHP:1,2019-09-06T23:54:00,30.0600,-84.2910,-0.222,11114222 
COMPS,ioos:station:USF.COMPS:SHP:1,2019-09-07T00:54:00,30.0600,-84.2910,-0.203,11114222 
COMPS,ioos:station:USF.COMPS:SHP:1,2019-09-07T01:54:00,30.0600,-84.2910,-0.183,11114222 
COMPS,ioos:station:USF.COMPS:SHP:1,2019-09-07T02:54:00,30.0600,-84.2910,-0.165,11114222 
COMPS,ioos:station:USF.COMPS:SHP:1,2019-09-07T03:54:00,30.0600,-84.2910,-0.15,11114222 
COMPS,ioos:station:USF.COMPS:SHP:1,2019-09-07T04:54:00,30.0600,-84.2910,-0.136,11114222 
COMPS,ioos:station:USF.COMPS:SHP:1,2019-09-07T05:54:00,30.0600,-84.2910,-0.124,11114222 
COMPS,ioos:station:USF.COMPS:SHP:1,2019-09-07T06:54:00,30.0600,-84.2910,-0.113,11114222 
COMPS,ioos:station:USF.COMPS:SHP:1,2019-09-07T07:54:00,30.0600,-84.2910,-0.103,11114222 
COMPS,ioos:station:USF.COMPS:SHP:1,2019-09-07T08:54:00,30.0600,-84.2910,-0.092,11114222 
COMPS,ioos:station:USF.COMPS:SHP:1,2019-09-07T09:54:00,30.0600,-84.2910,-0.078,11114222 
COMPS,ioos:station:USF.COMPS:SHP:1,2019-09-07T10:54:00,30.0600,-84.2910,-0.062,11114222 
COMPS,ioos:station:USF.COMPS:SHP:1,2019-09-07T11:54:00,30.0600,-84.2910,-0.044,11114222 
COMPS,ioos:station:USF.COMPS:SHP:1,2019-09-07T12:54:00,30.0600,-84.2910,-0.028,11114222 
COMPS,ioos:station:USF.COMPS:SHP:1,2019-09-07T13:54:00,30.0600,-84.2910,-0.011,11114222 
COMPS,ioos:station:USF.COMPS:SHP:1,2019-09-07T14:54:00,30.0600,-84.2910,-0.001,11114222 
COMPS,ioos:station:USF.COMPS:SHP:1,2019-09-07T15:54:00,30.0600,-84.2910,-0.003,11114222 
COMPS,ioos:station:USF.COMPS:SHP:1,2019-09-07T16:54:00,30.0600,-84.2910,0.0,11111222 
COMPS,ioos:station:USF.COMPS:SHP:1,2019-09-07T17:54:00,30.0600,-84.2910,0.004,11111222 
COMPS,ioos:station:USF.COMPS:SHP:1,2019-09-07T18:54:00,30.0600,-84.2910,-0.017,11114222 
COMPS,ioos:station:USF.COMPS:SHP:1,2019-09-07T19:54:00,30.0600,-84.2910,-0.066,11114222 
COMPS,ioos:station:USF.COMPS:SHP:1,2019-09-07T20:54:00,30.0600,-84.2910,-0.108,11114222 
COMPS,ioos:station:USF.COMPS:SHP:1,2019-09-07T21:54:00,30.0600,-84.2910,-0.12,11114222 
COMPS,ioos:station:USF.COMPS:SHP:1,2019-09-07T22:54:00,30.0600,-84.2910,-0.108,11114222 
COMPS,ioos:station:USF.COMPS:SHP:1,2019-09-07T23:54:00,30.0600,-84.2910,-0.116,11114222 
COMPS,ioos:station:USF.COMPS:SHP:1,2019-09-08T00:54:00,30.0600,-84.2910,-0.106,11114222 
COMPS,ioos:station:USF.COMPS:SHP:1,2019-09-08T01:54:00,30.0600,-84.2910,-0.093,11114222 
COMPS,ioos:station:USF.COMPS:SHP:1,2019-09-08T02:54:00,30.0600,-84.2910,-0.076,11114222 
COMPS,ioos:station:USF.COMPS:SHP:1,2019-09-08T03:54:00,30.0600,-84.2910,-0.057,11114222 
COMPS,ioos:station:USF.COMPS:SHP:1,2019-09-08T04:54:00,30.0600,-84.2910,-0.036,11114222 
COMPS,ioos:station:USF.COMPS:SHP:1,2019-09-08T05:54:00,30.0600,-84.2910,-0.019,11114222 
COMPS,ioos:station:USF.COMPS:SHP:1,2019-09-08T06:54:00,30.0600,-84.2910,-0.004,11114222 
COMPS,ioos:station:USF.COMPS:SHP:1,2019-09-08T07:54:00,30.0600,-84.2910,0.006,11111222 
COMPS,ioos:station:USF.COMPS:SHP:1,2019-09-08T08:54:00,30.0600,-84.2910,0.016,11111222 
COMPS,ioos:station:USF.COMPS:SHP:1,2019-09-08T09:54:00,30.0600,-84.2910,0.025,11111222 
COMPS,ioos:station:USF.COMPS:SHP:1,2019-09-08T10:54:00,30.0600,-84.2910,0.036,11111222 
COMPS,ioos:station:USF.COMPS:SHP:1,2019-09-08T11:54:00,30.0600,-84.2910,0.049,11111222 
COMPS,ioos:station:USF.COMPS:SHP:1,2019-09-08T12:54:00,30.0600,-84.2910,0.061,11111222 
COMPS,ioos:station:USF.COMPS:SHP:1,2019-09-08T13:54:00,30.0600,-84.2910,0.073,11111222 
COMPS,ioos:station:USF.COMPS:SHP:1,2019-09-08T14:54:00,30.0600,-84.2910,0.086,11111222 
COMPS,ioos:station:USF.COMPS:SHP:1,2019-09-08T15:54:00,30.0600,-84.2910,0.096,11111222 
COMPS,ioos:station:USF.COMPS:SHP:1,2019-09-08T16:54:00,30.0600,-84.2910,0.109,11111222 
COMPS,ioos:station:USF.COMPS:SHP:1,2019-09-08T17:54:00,30.0600,-84.2910,0.117,11111222 
COMPS,ioos:station:USF.COMPS:SHP:1,2019-09-08T18:54:00,30.0600,-84.2910,0.119,11111222 
COMPS,ioos:station:USF.COMPS:SHP:1,2019-09-08T19:54:00,30.0600,-84.2910,0.088,11111222 
COMPS,ioos:station:USF.COMPS:SHP:1,2019-09-08T20:54:00,30.0600,-84.2910,-0.001,11114222 
COMPS,ioos:station:USF.COMPS:SHP:1,2019-09-08T21:54:00,30.0600,-84.2910,-0.064,11114222 
COMPS,ioos:station:USF.COMPS:SHP:1,2019-09-08T22:54:00,30.0600,-84.2910,-0.104,11114222 
COMPS,ioos:station:USF.COMPS:SHP:1,2019-09-08T23:54:00,30.0600,-84.2910,-0.115,11114222 
COMPS,ioos:station:USF.COMPS:SHP:1,2019-09-09T00:54:00,30.0600,-84.2910,-0.106,11114222 
COMPS,ioos:station:USF.COMPS:SHP:1,2019-09-09T01:54:00,30.0600,-84.2910,-0.096,11114222 
COMPS,ioos:station:USF.COMPS:SHP:1,2019-09-09T02:54:00,30.0600,-84.2910,-0.082,11114222 
COMPS,ioos:station:USF.COMPS:SHP:1,2019-09-09T03:54:00,30.0600,-84.2910,-0.064,11114222 
COMPS,ioos:station:USF.COMPS:SHP:1,2019-09-09T04:54:00,30.0600,-84.2910,-0.043,11114222 
COMPS,ioos:station:USF.COMPS:SHP:1,2019-09-09T05:54:00,30.0600,-84.2910,-0.022,11114222 
COMPS,ioos:station:USF.COMPS:SHP:1,2019-09-09T06:54:00,30.0600,-84.2910,-0.003,11114222 
COMPS,ioos:station:USF.COMPS:SHP:1,2019-09-09T07:54:00,30.0600,-84.2910,0.01,11111222 
COMPS,ioos:station:USF.COMPS:SHP:1,2019-09-09T08:54:00,30.0600,-84.2910,0.019,11111222 
COMPS,ioos:station:USF.COMPS:SHP:1,2019-09-09T09:54:00,30.0600,-84.2910,0.026,11111222 
COMPS,ioos:station:USF.COMPS:SHP:1,2019-09-09T10:54:00,30.0600,-84.2910,0.032,11111222 
COMPS,ioos:station:USF.COMPS:SHP:1,2019-09-09T11:54:00,30.0600,-84.2910,0.041,11111222 
COMPS,ioos:station:USF.COMPS:SHP:1,2019-09-09T12:54:00,30.0600,-84.2910,0.045,11111222 
COMPS,ioos:station:USF.COMPS:SHP:1,2019-09-09T13:54:00,30.0600,-84.2910,0.055,11111222 
COMPS,ioos:station:USF.COMPS:SHP:1,2019-09-09T14:54:00,30.0600,-84.2910,0.067,11111222 
COMPS,ioos:station:USF.COMPS:SHP:1,2019-09-09T15:54:00,30.0600,-84.2910,0.082,11111222 
COMPS,ioos:station:USF.COMPS:SHP:1,2019-09-09T16:54:00,30.0600,-84.2910,0.096,11111222 
COMPS,ioos:station:USF.COMPS:SHP:1,2019-09-09T20:54:00,30.0600,-84.2910,0.049,11111222 
COMPS,ioos:station:USF.COMPS:SHP:1,2019-09-09T21:54:00,30.0600,-84.2910,-0.089,11114222 
COMPS,ioos:station:USF.COMPS:SHP:1,2019-09-09T22:54:00,30.0600,-84.2910,-0.201,11114222 
COMPS,ioos:station:USF.COMPS:SHP:1,2019-09-09T23:54:00,30.0600,-84.2910,-0.245,11114222 
COMPS,ioos:station:USF.COMPS:SHP:1,2019-09-10T00:54:00,30.0600,-84.2910,-0.233,11114222 
COMPS,ioos:station:USF.COMPS:SHP:1,2019-09-10T01:54:00,30.0600,-84.2910,-0.22,11114222 
COMPS,ioos:station:USF.COMPS:SHP:1,2019-09-10T02:54:00,30.0600,-84.2910,-0.204,11114222 
COMPS,ioos:station:USF.COMPS:SHP:1,2019-09-10T03:54:00,30.0600,-84.2910,-0.18,11114222 
COMPS,ioos:station:USF.COMPS:SHP:1,2019-09-10T04:54:00,30.0600,-84.2910,-0.148,11114222 
COMPS,ioos:station:USF.COMPS:SHP:1,2019-09-10T05:54:00,30.0600,-84.2910,-0.114,11114222 
COMPS,ioos:station:USF.COMPS:SHP:1,2019-09-10T06:54:00,30.0600,-84.2910,-0.083,11114222 
COMPS,ioos:station:USF.COMPS:SHP:1,2019-09-10T07:54:00,30.0600,-84.2910,-0.058,11114222 
COMPS,ioos:station:USF.COMPS:SHP:1,2019-09-10T08:54:00,30.0600,-84.2910,-0.038,11114222 
COMPS,ioos:station:USF.COMPS:SHP:1,2019-09-10T09:54:00,30.0600,-84.2910,-0.028,11114222 
COMPS,ioos:station:USF.COMPS:SHP:1,2019-09-10T10:54:00,30.0600,-84.2910,-0.024,11114222 
COMPS,ioos:station:USF.COMPS:SHP:1,2019-09-10T11:54:00,30.0600,-84.2910,-0.017,11114222 
COMPS,ioos:station:USF.COMPS:SHP:1,2019-09-10T12:54:00,30.0600,-84.2910,-0.011,11114222 
COMPS,ioos:station:USF.COMPS:SHP:1,2019-09-10T13:54:00,30.0600,-84.2910,0.0,11111222 
COMPS,ioos:station:USF.COMPS:SHP:1,2019-09-10T14:54:00,30.0600,-84.2910,0.016,11111222 
COMPS,ioos:station:USF.COMPS:SHP:1,2019-09-10T15:54:00,30.0600,-84.2910,0.041,11111222 
COMPS,ioos:station:USF.COMPS:SHP:1,2019-09-10T16:54:00,30.0600,-84.2910,0.067,11111222 
COMPS,ioos:station:USF.COMPS:SHP:1,2019-09-10T17:54:00,30.0600,-84.2910,0.094,11111222 
COMPS,ioos:station:USF.COMPS:SHP:1,2019-09-10T18:54:00,30.0600,-84.2910,0.118,11111222 
COMPS,ioos:station:USF.COMPS:SHP:1,2019-09-10T19:54:00,30.0600,-84.2910,0.14,11111222 
COMPS,ioos:station:USF.COMPS:SHP:1,2019-09-10T20:54:00,30.0600,-84.2910,0.138,11111222 
COMPS,ioos:station:USF.COMPS:SHP:1,2019-09-10T21:54:00,30.0600,-84.2910,0.035,11111222 
COMPS,ioos:station:USF.COMPS:SHP:1,2019-09-10T22:54:00,30.0600,-84.2910,-0.135,11114222 
COMPS,ioos:station:USF.COMPS:SHP:1,2019-09-10T23:54:00,30.0600,-84.2910,-0.243,11114222 
COMPS,ioos:station:USF.COMPS:SHP:1,2019-09-11T00:54:00,30.0600,-84.2910,-0.274,11114222 
COMPS,ioos:station:USF.COMPS:SHP:1,2019-09-11T01:54:00,30.0600,-84.2910,-0.261,11114222 
COMPS,ioos:station:USF.COMPS:SHP:1,2019-09-11T02:54:00,30.0600,-84.2910,-0.244,11114222 
COMPS,ioos:station:USF.COMPS:SHP:1,2019-09-11T03:54:00,30.0600,-84.2910,-0.223,11114222 
COMPS,ioos:station:USF.COMPS:SHP:1,2019-09-11T04:54:00,30.0600,-84.2910,-0.194,11114222 
COMPS,ioos:station:USF.COMPS:SHP:1,2019-09-11T05:54:00,30.0600,-84.2910,-0.162,11114222 
COMPS,ioos:station:USF.COMPS:SHP:1,2019-09-11T06:54:00,30.0600,-84.2910,-0.123,11114222 
COMPS,ioos:station:USF.COMPS:SHP:1,2019-09-11T07:54:00,30.0600,-84.2910,-0.088,11114222 
COMPS,ioos:station:USF.COMPS:SHP:1,2019-09-11T08:54:00,30.0600,-84.2910,-0.064,11114222 
COMPS,ioos:station:USF.COMPS:SHP:1,2019-09-11T09:54:00,30.0600,-84.2910,-0.049,11114222 
COMPS,ioos:station:USF.COMPS:SHP:1,2019-09-11T10:54:00,30.0600,-84.2910,-0.041,11114222 
COMPS,ioos:station:USF.COMPS:SHP:1,2019-09-11T11:54:00,30.0600,-84.2910,-0.038,11114222 
COMPS,ioos:station:USF.COMPS:SHP:1,2019-09-11T12:54:00,30.0600,-84.2910,-0.035,11114222 
COMPS,ioos:station:USF.COMPS:SHP:1,2019-09-11T13:54:00,30.0600,-84.2910,-0.029,11114222 
COMPS,ioos:station:USF.COMPS:SHP:1,2019-09-11T14:54:00,30.0600,-84.2910,-0.012,11114222 
COMPS,ioos:station:USF.COMPS:SHP:1,2019-09-11T15:54:00,30.0600,-84.2910,0.004,11111222 
COMPS,ioos:station:USF.COMPS:SHP:1,2019-09-11T16:54:00,30.0600,-84.2910,0.03,11111222 
COMPS,ioos:station:USF.COMPS:SHP:1,2019-09-11T17:54:00,30.0600,-84.2910,0.058,11111222 
COMPS,ioos:station:USF.COMPS:SHP:1,2019-09-11T18:54:00,30.0600,-84.2910,0.083,11111222 
COMPS,ioos:station:USF.COMPS:SHP:1,2019-09-11T19:54:00,30.0600,-84.2910,0.107,11111222 
COMPS,ioos:station:USF.COMPS:SHP:1,2019-09-11T20:54:00,30.0600,-84.2910,0.119,11111222 
COMPS,ioos:station:USF.COMPS:SHP:1,2019-09-11T21:54:00,30.0600,-84.2910,0.038,11111222 
COMPS,ioos:station:USF.COMPS:SHP:1,2019-09-11T22:54:00,30.0600,-84.2910,-0.169,11114222 
COMPS,ioos:station:USF.COMPS:SHP:1,2019-09-11T23:54:00,30.0600,-84.2910,-0.327,11114222 
COMPS,ioos:station:USF.COMPS:SHP:1,2019-09-12T00:54:00,30.0600,-84.2910,-0.384,11114222 
COMPS,ioos:station:USF.COMPS:SHP:1,2019-09-12T01:54:00,30.0600,-84.2910,-0.374,11114222 
COMPS,ioos:station:USF.COMPS:SHP:1,2019-09-12T02:54:00,30.0600,-84.2910,-0.356,11114222 
COMPS,ioos:station:USF.COMPS:SHP:1,2019-09-12T03:54:00,30.0600,-84.2910,-0.336,11114222 
COMPS,ioos:station:USF.COMPS:SHP:1,2019-09-12T04:54:00,30.0600,-84.2910,-0.307,11114222 
COMPS,ioos:station:USF.COMPS:SHP:1,2019-09-12T05:54:00,30.0600,-84.2910,-0.27,11114222 
COMPS,ioos:station:USF.COMPS:SHP:1,2019-09-12T06:54:00,30.0600,-84.2910,-0.232,11114222 
COMPS,ioos:station:USF.COMPS:SHP:1,2019-09-12T07:54:00,30.0600,-84.2910,-0.198,11114222 
COMPS,ioos:station:USF.COMPS:SHP:1,2019-09-12T08:54:00,30.0600,-84.2910,-0.174,11114222 
COMPS,ioos:station:USF.COMPS:SHP:1,2019-09-12T09:54:00,30.0600,-84.2910,-0.159,11114222 
COMPS,ioos:station:USF.COMPS:SHP:1,2019-09-12T10:54:00,30.0600,-84.2910,-0.152,11114222 